Location: *
(58.4167°N, 22.5000°E)
Time: 01:20:53
(UTC+00:00)

ADEOS Rocket - Pass Details

Date: 22 September 2019
Orbit: 859 x 1306 km, 98.7° (Epoch: 20 October)

Event Time Altitude Azimuth Distance (km) Brightness Sun altitude
Rises 18:39:18 0° 16° (NNE) 4,034 6.4 -16.9°
Reaches altitude 10° 18:41:50 10° 19° (NNE) 3,124 5.8 -17.2°
Maximum altitude 18:49:07 74° 105° (ESE) 1,309 3.4 -18.0°
Drops below altitude 10° 18:56:52 10° 190° (S) 3,310 5.5 -18.9°
Sets 18:59:37 0° 192° (SSW) 4,287 6.1 -19.2°
